Date String (YYYY-MM-DD hh:mm:ss) UTC,Instrument flags,Ambient pressure (hPa),Sample flow (lpm),Bypass flow (lpm),Sample temperature (°C),Ambient temperature (°C),ASC tube jacket temperature (°C),LED temperature (°C),Box temperature (°C),Sample RH (%),Span deviation,Mass concentration (μg/m³),Mass concentration (μg/m³),Mass concentration (μg/m³)
DateTimeUTC,F1_M11,P_M11,Q1_M11,Q2_M11,T1_M11,T2_M11,T3_M11,T4_M11,T5_M11,U1_M11,ZSPAN_M11,X2_M11,X0_M11,X1_M11
2023-02-24 10:00:00,,0825.6,5.09,0.00,22.7,23.3,00.0,31.2,24.6,04.0,0000.0,0005.97,0010.51,0005.57
2023-02-24 10:01:00,,0825.6,5.02,0.00,22.7,22.6,00.0,31.3,24.5,04.0,0000.0,0005.95,0011.16,0005.57
2023-02-24 10:02:00,,0825.5,4.98,0.00,22.6,22.0,00.0,31.3,24.3,04.0,0000.0,0005.93,0011.11,0005.56
2023-02-24 10:03:00,,0825.5,5.01,0.00,22.6,21.5,00.0,31.3,24.1,04.0,0000.0,0005.95,0011.14,0005.57
2023-02-24 10:04:00,,0825.4,4.97,0.00,22.5,21.0,00.0,31.3,24.0,04.1,0000.0,0005.93,0011.02,0005.57
2023-02-24 10:05:00,,0825.4,5.01,0.00,22.4,20.7,00.0,31.3,23.9,04.1,0000.0,0005.91,0011.14,0005.54
2023-02-24 10:06:00,,0825.4,4.99,0.00,22.4,20.8,00.0,31.2,23.9,04.1,0000.0,0005.89,0011.21,0005.52
2023-02-24 10:07:00,,0825.4,5.01,0.00,22.5,21.8,00.0,31.2,24.1,04.1,0000.0,0005.84,0011.08,0005.48
2023-02-24 10:08:00,,0825.5,4.97,0.00,22.6,22.6,00.0,31.2,24.4,04.1,0000.0,0005.78,0010.99,0005.41
2023-02-24 10:09:00,,0825.4,5.02,0.00,22.7,23.3,00.0,31.2,24.6,04.1,0000.0,0005.70,0010.83,0005.34
2023-02-24 10:10:00,,0825.4,4.94,0.00,22.8,23.1,00.0,31.3,24.6,04.1,0000.0,0005.64,0010.75,0005.29
2023-02-24 10:11:00,,0825.4,5.00,0.00,22.7,22.4,00.0,31.3,24.4,04.1,0000.0,0005.62,0010.79,0005.25
2023-02-24 10:12:00,,0825.4,4.97,0.00,22.7,21.8,00.0,31.3,24.2,04.1,0000.0,0005.61,0010.56,0005.22
2023-02-24 10:13:00,,0825.4,4.97,0.00,22.6,21.3,00.0,31.3,24.1,04.1,0000.0,0005.62,0010.19,0005.22
2023-02-24 10:14:00,,0825.5,5.00,0.00,22.5,21.0,00.0,31.3,24.0,04.1,0000.0,0005.60,0009.85,0005.22
2023-02-24 10:15:00,,0825.5,5.00,0.00,22.5,20.7,00.0,31.3,23.9,04.1,0000.0,0005.60,0009.34,0005.22
2023-02-24 10:16:00,,0825.4,5.02,0.00,22.4,21.2,00.0,31.2,24.0,04.1,0000.0,0005.61,0009.28,0005.21
2023-02-24 10:17:00,,0825.4,4.99,0.00,22.5,22.1,00.0,31.2,24.3,04.1,0000.0,0005.61,0009.05,0005.23
2023-02-24 10:18:00,,0825.4,4.96,0.00,22.6,23.0,00.0,31.2,24.5,04.1,0000.0,0005.62,0009.09,0005.24
2023-02-24 10:19:00,,0825.4,5.04,0.00,22.7,23.5,00.0,31.3,24.6,04.0,0000.0,0005.69,0009.29,0005.27
2023-02-24 10:20:00,,0825.4,4.98,0.00,22.8,22.9,00.0,31.3,24.5,04.0,0000.0,0005.72,0009.40,0005.30
2023-02-24 10:21:00,,0825.4,4.99,0.00,22.7,22.2,00.0,31.3,24.4,04.0,0000.0,0005.75,0009.48,0005.32
2023-02-24 10:22:00,,0825.3,5.00,0.00,22.7,21.6,00.0,31.3,24.2,04.1,0000.0,0005.73,0010.12,0005.30
2023-02-24 10:23:00,,0825.3,5.01,0.00,22.6,21.2,00.0,31.3,24.1,04.1,0000.0,0005.67,0009.71,0005.26
2023-02-24 10:24:00,,0825.3,4.98,0.00,22.5,20.8,00.0,31.3,24.0,04.1,0000.0,0005.61,0009.59,0005.20
2023-02-24 10:25:00,,0825.3,4.99,0.00,22.4,20.7,00.0,31.3,23.9,04.1,0000.0,0005.52,0009.50,0005.13
2023-02-24 10:26:00,,0825.3,4.98,0.00,22.5,21.7,00.0,31.3,24.1,04.1,0000.0,0005.45,0009.44,0005.06
2023-02-24 10:27:00,,0825.4,4.98,0.00,22.6,22.6,00.0,31.3,24.4,04.1,0000.0,0005.41,0009.38,0005.02
2023-02-24 10:28:00,,0825.4,4.95,0.00,22.7,23.3,00.0,31.3,24.6,04.0,0000.0,0005.37,0009.39,0004.97
2023-02-24 10:29:00,,0825.4,5.02,0.00,22.7,22.8,00.0,31.3,24.5,04.0,0000.0,0005.34,0009.39,0004.95
2023-02-24 10:30:00,,0825.4,5.02,0.00,22.7,22.1,00.0,31.3,24.3,04.0,0000.0,0005.31,0009.60,0004.91
2023-02-24 10:31:00,,0825.4,4.99,0.00,22.6,21.5,00.0,31.3,24.2,04.1,0000.0,0005.26,0009.53,0004.88
2023-02-24 10:32:00,,0825.4,5.00,0.00,22.6,21.1,00.0,31.3,24.1,04.1,0000.0,0005.22,0009.45,0004.86
2023-02-24 10:33:00,,0825.3,5.00,0.00,22.5,20.8,00.0,31.3,24.0,04.1,0000.0,0005.22,0008.89,0004.85
2023-02-24 10:34:00,,0825.4,5.00,0.00,22.4,20.6,00.0,31.3,23.9,04.1,0000.0,0005.24,0009.04,0004.85
2023-02-24 10:35:00,,0825.3,5.01,0.00,22.5,21.5,00.0,31.2,24.1,04.1,0000.0,0005.22,0009.15,0004.85
2023-02-24 10:36:00,,0825.3,4.97,0.00,22.6,22.4,00.0,31.2,24.3,04.1,0000.0,0005.21,0009.10,0004.84
2023-02-24 10:37:00,,0825.3,5.02,0.00,22.7,23.2,00.0,31.3,24.6,04.0,0000.0,0005.21,0009.05,0004.86
2023-02-24 10:38:00,,0825.3,5.03,0.00,22.8,23.5,00.0,31.3,24.7,04.0,0000.0,0005.22,0009.06,0004.88
2023-02-24 10:39:00,,0825.3,5.02,0.00,22.8,22.7,00.0,31.3,24.5,04.0,0000.0,0005.23,0009.07,0004.89
2023-02-24 10:40:00,,0825.3,5.00,0.00,22.7,22.1,00.0,31.3,24.3,04.0,0000.0,0005.23,0009.02,0004.89
2023-02-24 10:41:00,,0825.2,5.01,0.00,22.6,21.5,00.0,31.3,24.1,04.0,0000.0,0005.21,0008.86,0004.90
2023-02-24 10:42:00,,0825.2,5.00,0.00,22.6,21.0,00.0,31.3,24.0,04.1,0000.0,0005.22,0008.86,0004.91
2023-02-24 10:43:00,,0825.1,4.99,0.00,22.5,20.7,00.0,31.3,23.9,04.1,0000.0,0005.23,0008.88,0004.90
2023-02-24 10:44:00,,0825.1,5.00,0.00,22.5,21.0,00.0,31.3,24.0,04.1,0000.0,0005.23,0008.89,0004.90
2023-02-24 10:45:00,,0825.1,5.04,0.00,22.6,22.1,00.0,31.3,24.3,04.1,0000.0,0005.23,0008.75,0004.92
2023-02-24 10:46:00,,0825.2,4.97,0.00,22.7,22.9,00.0,31.3,24.5,04.1,0000.0,0005.27,0008.76,0004.93
2023-02-24 10:47:00,,0825.2,5.04,0.00,22.8,23.2,00.0,31.3,24.6,04.0,0000.0,0005.30,0009.53,0004.96
2023-02-24 10:48:00,,0825.2,4.98,0.00,22.7,22.5,00.0,31.3,24.4,04.1,0000.0,0005.35,0009.61,0004.97
2023-02-24 10:49:00,,0825.2,4.99,0.00,22.7,21.9,00.0,31.3,24.3,04.1,0000.0,0005.35,0009.66,0004.96
2023-02-24 10:50:00,,0825.2,5.01,0.00,22.6,21.4,00.0,31.3,24.1,04.1,0000.0,0005.38,0009.67,0004.97
2023-02-24 10:51:00,,0825.2,4.98,0.00,22.6,21.0,00.0,31.3,24.0,04.1,0000.0,0005.48,0009.87,0005.03
2023-02-24 10:52:00,,0825.2,5.00,0.00,22.5,20.7,00.0,31.3,24.0,04.1,0000.0,0005.52,0009.72,0005.06
2023-02-24 10:53:00,,0825.2,4.99,0.00,22.4,20.8,00.0,31.3,24.0,04.1,0000.0,0005.60,0009.76,0005.13
2023-02-24 10:54:00,,0825.3,4.99,0.00,22.5,21.8,00.0,31.2,24.2,04.1,-000.5,0005.69,0009.86,0005.22
2023-02-24 10:55:00,,0825.3,4.97,0.00,22.6,22.7,00.0,31.2,24.4,04.1,-000.1,0005.79,0010.00,0005.30
2023-02-24 10:56:00,,0825.2,5.09,0.00,22.7,23.4,00.0,31.3,24.6,04.0,0000.2,0005.89,0010.14,0005.38
2023-02-24 10:57:00,,0825.1,5.04,0.00,22.8,23.1,00.0,31.3,24.6,04.0,0000.5,0005.97,0010.21,0005.47
2023-02-24 10:58:00,,0825.1,5.00,0.00,22.7,22.4,00.0,31.3,24.4,04.0,0000.6,0006.03,0009.55,0005.54
2023-02-24 10:59:00,,0825.1,4.97,0.00,22.7,21.8,00.0,31.3,24.2,04.0,0000.9,0006.10,0009.62,0005.61
